﻿TIME_UTC_SECONDS;TIME_UTC_STR;AIR_TEMP;TRACK_TEMP;HUMIDITY;PRESSURE;WIND_SPEED;WIND_DIRECTION;
1525849253;5/9/2018 7:00:53 AM;16.5556;19.4444;87;984.494;1.60934;94;
1525849319;5/9/2018 7:01:59 AM;16.6111;19.4444;87;984.426;1.60934;335;
1525849384;5/9/2018 7:03:04 AM;16.6111;19.4444;87;984.426;1.60934;336;
1525849449;5/9/2018 7:04:09 AM;16.6111;19.4444;86;984.46;1.60934;296;
1525849512;5/9/2018 7:05:12 AM;16.6667;19.4444;86;984.46;1.60934;295;
1525849579;5/9/2018 7:06:19 AM;16.7222;19.4444;87;984.426;3.21869;167;
1525849644;5/9/2018 7:07:24 AM;16.7222;19.4444;85;984.426;3.21869;155;
1525849709;5/9/2018 7:08:29 AM;16.7222;19.4444;85;984.46;1.60934;155;
1525849773;5/9/2018 7:09:33 AM;16.7222;19.4444;86;984.46;0;155;
1525849838;5/9/2018 7:10:38 AM;16.7222;19.4444;86;984.494;1.60934;156;
1525849904;5/9/2018 7:11:44 AM;16.7222;19.4444;86;984.528;0;157;
1525849970;5/9/2018 7:12:50 AM;16.7778;19.4444;86;984.528;1.60934;158;
1525850035;5/9/2018 7:13:55 AM;16.7778;19.4444;86;984.46;1.60934;159;
1525850100;5/9/2018 7:15:00 AM;16.8333;19.4444;86;984.494;1.60934;163;
1525850163;5/9/2018 7:16:03 AM;16.8333;19.4444;85;984.46;0;160;
1525850230;5/9/2018 7:17:10 AM;16.8333;19.4444;85;984.426;0;159;
1525850295;5/9/2018 7:18:15 AM;16.8889;19.4444;85;984.426;1.60934;160;
1525850360;5/9/2018 7:19:20 AM;16.9444;19.4444;86;984.46;1.60934;180;
1525850425;5/9/2018 7:20:25 AM;16.9444;19.4444;85;984.494;0;180;
1525850490;5/9/2018 7:21:30 AM;17;19.4444;85;984.528;1.60934;180;
1525850554;5/9/2018 7:22:34 AM;16.9444;19.4444;85;984.528;1.60934;163;
1525850619;5/9/2018 7:23:39 AM;16.9444;19.4444;84;984.528;3.21869;171;
1525850686;5/9/2018 7:24:46 AM;16.9444;19.4444;84;984.528;1.60934;171;
1525850751;5/9/2018 7:25:51 AM;16.8889;19.4444;85;984.562;0;211;
1525850816;5/9/2018 7:26:56 AM;16.8889;19.4444;85;984.562;1.60934;227;
1525850881;5/9/2018 7:28:01 AM;16.9444;19.4444;84;984.562;0;227;
1525850945;5/9/2018 7:29:05 AM;16.9444;19.4444;85;984.562;0;227;
1525851011;5/9/2018 7:30:11 AM;16.9444;19.4444;85;984.562;3.21869;224;
1525851076;5/9/2018 7:31:16 AM;17;19.4444;84;984.562;3.21869;221;
1525851141;5/9/2018 7:32:21 AM;17.0556;19.4444;84;984.596;1.60934;221;
1525851206;5/9/2018 7:33:26 AM;17.0556;19.4444;84;984.562;1.60934;219;
1525851270;5/9/2018 7:34:30 AM;17.1667;19.4444;84;984.596;3.21869;219;
1525851337;5/9/2018 7:35:37 AM;17.2222;19.4444;84;984.596;0;219;
1525851402;5/9/2018 7:36:42 AM;17.2778;19.4444;84;984.562;3.21869;141;
1525851467;5/9/2018 7:37:47 AM;17.2778;19.4444;83;984.562;3.21869;186;
1525851532;5/9/2018 7:38:52 AM;17.2222;19.4444;84;984.528;1.60934;173;
1525851596;5/9/2018 7:39:56 AM;17.1667;19.4444;83;984.528;1.60934;173;
1525851662;5/9/2018 7:41:02 AM;17.2222;19.4444;83;984.528;0;173;
1525851727;5/9/2018 7:42:07 AM;17.2222;19.4444;83;984.528;0;173;
1525851792;5/9/2018 7:43:12 AM;17.2222;19.4444;83;984.528;0;130;
1525851857;5/9/2018 7:44:17 AM;17.2222;19.4444;84;984.494;3.21869;142;
1525851921;5/9/2018 7:45:21 AM;17.2778;19.4444;84;984.494;1.60934;142;
1525851988;5/9/2018 7:46:28 AM;17.3333;19.4444;84;984.494;3.21869;144;
1525852051;5/9/2018 7:47:31 AM;17.3333;20;84;984.494;1.60934;157;
1525852118;5/9/2018 7:48:38 AM;17.4444;20;84;984.528;3.21869;153;
1525852183;5/9/2018 7:49:43 AM;17.4444;20;83;984.528;6.43738;107;
1525852247;5/9/2018 7:50:47 AM;17.5;20;83;984.562;8.04672;119;
1525852313;5/9/2018 7:51:53 AM;17.3889;20;82;984.528;1.60934;135;
1525852377;5/9/2018 7:52:57 AM;17.3889;20;82;984.562;6.43738;109;
1525852443;5/9/2018 7:54:03 AM;17.3333;20;82;984.528;4.82803;113;
1525852509;5/9/2018 7:55:09 AM;17.3333;20;83;984.562;4.82803;128;
1525852572;5/9/2018 7:56:12 AM;17.3333;20;83;984.562;6.43738;110;
1525852639;5/9/2018 7:57:19 AM;17.2778;20;82;984.63;4.82803;114;
1525852702;5/9/2018 7:58:22 AM;17.2778;20;82;984.562;4.82803;117;
1525852769;5/9/2018 7:59:29 AM;17.2778;20;84;984.596;1.60934;142;
1525852834;5/9/2018 8:00:34 AM;17.3333;20;83;984.596;1.60934;142;
1525852898;5/9/2018 8:01:38 AM;17.3889;20;83;984.63;3.21869;142;
1525852964;5/9/2018 8:02:44 AM;17.4444;20;83;984.63;0;151;
1525853028;5/9/2018 8:03:48 AM;17.4444;20;82;984.664;6.43738;116;
1525853094;5/9/2018 8:04:54 AM;17.4444;20;82;984.63;3.21869;126;
1525853160;5/9/2018 8:06:00 AM;17.4444;20;82;984.63;0;126;
1525853225;5/9/2018 8:07:05 AM;17.5;20;82;984.63;1.60934;127;
1525853290;5/9/2018 8:08:10 AM;17.6111;20;83;984.63;1.60934;360;
1525853353;5/9/2018 8:09:13 AM;17.7778;20;83;984.664;1.60934;360;
1525853420;5/9/2018 8:10:20 AM;17.8889;20;82;984.664;4.82803;59;
1525853485;5/9/2018 8:11:25 AM;18;20;81;984.697;4.82803;126;
1525853550;5/9/2018 8:12:30 AM;18.0556;20;80;984.664;6.43738;115;
1525853614;5/9/2018 8:13:34 AM;18;20;80;984.731;1.60934;121;
1525853679;5/9/2018 8:14:39 AM;17.9444;20;80;984.697;4.82803;127;
1525853745;5/9/2018 8:15:45 AM;17.9444;20;80;984.765;3.21869;111;
1525853811;5/9/2018 8:16:51 AM;18;20;81;984.799;3.21869;222;
1525853876;5/9/2018 8:17:56 AM;18;20;80;984.799;0;209;
1525853941;5/9/2018 8:19:01 AM;18.0556;20;80;984.833;1.60934;196;
1525854004;5/9/2018 8:20:04 AM;18.1111;20;79;984.799;1.60934;215;
1525854071;5/9/2018 8:21:11 AM;18.1667;20;79;984.799;1.60934;124;
1525854136;5/9/2018 8:22:16 AM;18.2778;20;79;984.833;1.60934;125;
1525854201;5/9/2018 8:23:21 AM;18.3333;20;79;984.833;8.04672;90;
1525854266;5/9/2018 8:24:26 AM;18.3333;20;78;984.799;1.60934;153;
1525854330;5/9/2018 8:25:30 AM;18.3333;20;78;984.799;6.43738;132;
1525854396;5/9/2018 8:26:36 AM;18.2778;20;78;984.799;6.43738;112;
1525854462;5/9/2018 8:27:42 AM;18.1667;20;78;984.799;6.43738;113;
1525854527;5/9/2018 8:28:47 AM;18.0556;20;78;984.833;4.82803;106;
1525854592;5/9/2018 8:29:52 AM;18;20;79;984.833;3.21869;119;
1525854655;5/9/2018 8:30:55 AM;18;20;80;984.833;3.21869;159;
1525854722;5/9/2018 8:32:02 AM;17.9444;20;80;984.833;3.21869;146;
1525854787;5/9/2018 8:33:07 AM;17.9444;20;80;984.833;1.60934;142;
1525854852;5/9/2018 8:34:12 AM;17.9444;20;80;984.867;0;126;
1525854917;5/9/2018 8:35:17 AM;17.8889;20;79;984.901;6.43738;142;
1525854981;5/9/2018 8:36:21 AM;17.8333;20;78;984.901;1.60934;146;
1525855048;5/9/2018 8:37:28 AM;17.8889;20;79;984.901;3.21869;150;
1525855111;5/9/2018 8:38:31 AM;17.8889;20;79;984.833;3.21869;155;
1525855178;5/9/2018 8:39:38 AM;17.9444;20;79;984.867;3.21869;177;
1525855243;5/9/2018 8:40:43 AM;18;20;79;984.867;1.60934;128;
1525855306;5/9/2018 8:41:46 AM;18;20;79;984.867;1.60934;128;
1525855373;5/9/2018 8:42:53 AM;18.0556;20;80;984.867;3.21869;167;
1525855437;5/9/2018 8:43:57 AM;18.1111;20;79;984.901;1.60934;161;
1525855503;5/9/2018 8:45:03 AM;18.1667;20;79;984.901;1.60934;161;
1525855568;5/9/2018 8:46:08 AM;18.2222;20;79;984.867;1.60934;160;
1525855632;5/9/2018 8:47:12 AM;18.2778;20;79;984.833;1.60934;160;
1525855698;5/9/2018 8:48:18 AM;18.3889;20;79;984.867;1.60934;109;
1525855762;5/9/2018 8:49:22 AM;18.5;20;78;984.867;0;109;
1525855829;5/9/2018 8:50:29 AM;18.5556;20;77;984.901;3.21869;198;
1525855894;5/9/2018 8:51:34 AM;18.6111;20;76;984.901;0;223;
1525855957;5/9/2018 8:52:37 AM;18.5;20;76;984.833;3.21869;305;
1525856024;5/9/2018 8:53:44 AM;18.4444;20;75;984.833;0;355;
1525856088;5/9/2018 8:54:48 AM;18.4444;20;75;984.833;1.60934;110;
1525856154;5/9/2018 8:55:54 AM;18.4444;20;76;984.833;3.21869;137;
1525856218;5/9/2018 8:56:58 AM;18.6111;20;78;984.867;3.21869;158;
1525856283;5/9/2018 8:58:03 AM;18.7222;20;76;984.867;3.21869;188;
1525856350;5/9/2018 8:59:10 AM;18.7778;20.5556;76;984.867;1.60934;196;
1525856413;5/9/2018 9:00:13 AM;18.8333;20.5556;76;984.833;3.21869;157;
1525856480;5/9/2018 9:01:20 AM;18.9444;20.5556;76;984.799;3.21869;148;
1525856545;5/9/2018 9:02:25 AM;19.0556;20.5556;75;984.799;1.60934;159;
1525856608;5/9/2018 9:03:28 AM;19.1111;20.5556;74;984.799;3.21869;159;
1525856674;5/9/2018 9:04:34 AM;19.2222;20.5556;75;984.731;1.60934;310;
1525856739;5/9/2018 9:05:39 AM;19.3333;20.5556;73;984.731;3.21869;317;
1525856805;5/9/2018 9:06:45 AM;19.3333;20.5556;72;984.731;1.60934;21;
1525856870;5/9/2018 9:07:50 AM;19.3889;20.5556;73;984.697;0;61;
1525856934;5/9/2018 9:08:54 AM;19.4444;20.5556;73;984.697;4.82803;215;
1525857001;5/9/2018 9:10:01 AM;19.4444;20.5556;73;984.697;4.82803;130;
1525857064;5/9/2018 9:11:04 AM;19.4444;20.5556;73;984.664;1.60934;132;
1525857131;5/9/2018 9:12:11 AM;19.3333;20.5556;73;984.664;3.21869;144;
1525857196;5/9/2018 9:13:16 AM;19.3333;20.5556;74;984.664;3.21869;171;
1525857259;5/9/2018 9:14:19 AM;19.3333;20.5556;74;984.664;6.43738;144;
1525857326;5/9/2018 9:15:26 AM;19.3333;20.5556;74;984.664;3.21869;126;
1525857390;5/9/2018 9:16:30 AM;19.2778;20.5556;74;984.63;3.21869;155;
1525857456;5/9/2018 9:17:36 AM;19.1667;20.5556;74;984.664;3.21869;207;
1525857520;5/9/2018 9:18:40 AM;19.1667;20.5556;74;984.63;3.21869;155;
1525857585;5/9/2018 9:19:45 AM;19.1111;20.5556;74;984.63;1.60934;159;
1525857652;5/9/2018 9:20:52 AM;19.0556;20.5556;74;984.63;1.60934;237;
1525857717;5/9/2018 9:21:57 AM;19.1667;20.5556;74;984.596;6.43738;200;
1525857782;5/9/2018 9:23:02 AM;19.1667;20.5556;72;984.596;4.82803;200;
1525857845;5/9/2018 9:24:05 AM;19.2222;20.5556;72;984.596;4.82803;173;
1525857910;5/9/2018 9:25:10 AM;19.3333;20.5556;72;984.596;4.82803;134;
1525857977;5/9/2018 9:26:17 AM;19.3889;20.5556;72;984.63;3.21869;129;
1525858042;5/9/2018 9:27:22 AM;19.3889;20.5556;72;984.596;1.60934;146;
1525858107;5/9/2018 9:28:27 AM;19.3889;20.5556;73;984.596;0;146;
1525858171;5/9/2018 9:29:31 AM;19.6111;20.5556;73;984.562;1.60934;182;
1525858236;5/9/2018 9:30:36 AM;19.7778;20.5556;72;984.664;1.60934;182;
1525858303;5/9/2018 9:31:43 AM;19.9444;20.5556;70;984.596;3.21869;208;
1525858368;5/9/2018 9:32:48 AM;20.1667;20.5556;70;984.596;0;257;
1525858433;5/9/2018 9:33:53 AM;20.2778;20.5556;69;984.596;6.43738;342;
1525858496;5/9/2018 9:34:56 AM;20.2222;20.5556;69;984.596;3.21869;350;
1525858561;5/9/2018 9:36:01 AM;20.2222;20.5556;70;984.562;3.21869;15;
1525858628;5/9/2018 9:37:08 AM;20.1667;20.5556;69;984.596;1.60934;28;
1525858693;5/9/2018 9:38:13 AM;20;20.5556;69;984.596;3.21869;144;
1525858758;5/9/2018 9:39:18 AM;19.9444;20.5556;70;984.596;4.82803;154;
1525858822;5/9/2018 9:40:22 AM;19.8889;20.5556;70;984.528;1.60934;148;
1525858887;5/9/2018 9:41:27 AM;19.7778;20.5556;70;984.528;4.82803;122;
1525858954;5/9/2018 9:42:34 AM;19.6667;20.5556;70;984.562;4.82803;105;
1525859019;5/9/2018 9:43:39 AM;19.5556;20.5556;69;984.562;1.60934;117;
1525859084;5/9/2018 9:44:44 AM;19.7222;20.5556;71;984.528;4.82803;120;
1525859147;5/9/2018 9:45:47 AM;19.7222;20.5556;70;984.528;3.21869;125;
1525859212;5/9/2018 9:46:52 AM;19.7222;20.5556;70;984.528;3.21869;130;
1525859279;5/9/2018 9:47:59 AM;19.6667;20.5556;70;984.528;4.82803;130;
1525859344;5/9/2018 9:49:04 AM;19.6667;20.5556;69;984.528;1.60934;111;
1525859409;5/9/2018 9:50:09 AM;19.6667;20.5556;69;984.528;1.60934;111;
1525859473;5/9/2018 9:51:13 AM;19.6111;20.5556;69;984.494;3.21869;113;
1525859538;5/9/2018 9:52:18 AM;19.6111;20.5556;70;984.528;1.60934;190;
1525859603;5/9/2018 9:53:23 AM;19.6111;20.5556;70;984.494;1.60934;190;
1525859670;5/9/2018 9:54:30 AM;19.6111;20.5556;69;984.494;1.60934;5;
1525859733;5/9/2018 9:55:33 AM;19.6667;20.5556;69;984.494;3.21869;216;
1525859799;5/9/2018 9:56:39 AM;19.7778;20.5556;68;984.494;1.60934;94;
1525859864;5/9/2018 9:57:44 AM;19.8333;20.5556;68;984.528;1.60934;96;
1525859929;5/9/2018 9:58:49 AM;20;20.5556;68;984.494;3.21869;210;
1525859995;5/9/2018 9:59:55 AM;20.2222;20.5556;68;984.494;1.60934;303;
1525860060;5/9/2018 10:01:00 AM;20.3889;20.5556;67;984.528;1.60934;302;
1525860125;5/9/2018 10:02:05 AM;20.6111;20.5556;67;984.528;3.21869;180;
1525860189;5/9/2018 10:03:09 AM;20.6667;20.5556;66;984.494;4.82803;128;
1525860254;5/9/2018 10:04:14 AM;20.6111;20.5556;65;984.494;0;129;
1525860321;5/9/2018 10:05:21 AM;20.5;20.5556;64;984.494;1.60934;270;
1525860386;5/9/2018 10:06:26 AM;20.4444;20.5556;66;984.426;1.60934;74;
1525860451;5/9/2018 10:07:31 AM;20.3889;20.5556;66;984.426;1.60934;281;
1525860515;5/9/2018 10:08:35 AM;20.3889;20.5556;67;984.46;1.60934;296;
1525860580;5/9/2018 10:09:40 AM;20.4444;20.5556;67;984.46;1.60934;264;
1525860646;5/9/2018 10:10:46 AM;20.4444;20.5556;67;984.426;4.82803;186;
1525860711;5/9/2018 10:11:51 AM;20.4444;20.5556;66;984.393;1.60934;155;
1525860776;5/9/2018 10:12:56 AM;20.5556;20.5556;66;984.393;1.60934;107;
1525860840;5/9/2018 10:14:00 AM;20.6667;20.5556;66;984.393;1.60934;17;
1525860905;5/9/2018 10:15:05 AM;20.7778;20.5556;65;984.359;3.21869;114;
1525860972;5/9/2018 10:16:12 AM;20.8889;20.5556;66;984.393;4.82803;137;
1525861037;5/9/2018 10:17:17 AM;20.9444;20.5556;64;984.359;1.60934;151;
1525861102;5/9/2018 10:18:22 AM;20.9444;20.5556;65;984.359;3.21869;152;
1525861166;5/9/2018 10:19:26 AM;20.9444;20.5556;65;984.393;4.82803;111;
1525861231;5/9/2018 10:20:31 AM;21;20.5556;68;984.359;8.04672;145;
1525861297;5/9/2018 10:21:37 AM;21.0556;20.5556;65;984.359;6.43738;146;
1525861362;5/9/2018 10:22:42 AM;20.9444;20.5556;65;984.359;6.43738;134;
1525861428;5/9/2018 10:23:48 AM;20.8889;20.5556;65;984.359;3.21869;123;
1525861491;5/9/2018 10:24:51 AM;20.7222;20.5556;64;984.359;8.04672;196;
1525861556;5/9/2018 10:25:56 AM;20.7778;20.5556;65;984.359;11.2654;105;
1525861623;5/9/2018 10:27:03 AM;20.7778;20.5556;64;984.291;8.04672;157;
1525861688;5/9/2018 10:28:08 AM;20.8333;20.5556;65;984.393;8.04672;147;
1525861753;5/9/2018 10:29:13 AM;20.8333;20.5556;64;984.325;4.82803;159;
1525861817;5/9/2018 10:30:17 AM;20.8889;20.5556;64;984.359;3.21869;119;
1525861882;5/9/2018 10:31:22 AM;20.8889;20.5556;63;984.325;4.82803;115;
1525861948;5/9/2018 10:32:28 AM;20.7778;20.5556;63;984.325;4.82803;158;
1525862012;5/9/2018 10:33:32 AM;20.7778;20.5556;65;984.359;1.60934;234;
1525862078;5/9/2018 10:34:38 AM;20.8889;20.5556;65;984.325;4.82803;189;
1525862142;5/9/2018 10:35:42 AM;21;20.5556;63;984.257;6.43738;154;
1525862209;5/9/2018 10:36:49 AM;21;20.5556;61;984.325;6.43738;121;
1525862274;5/9/2018 10:37:54 AM;20.9444;20.5556;61;984.291;6.43738;154;
1525862337;5/9/2018 10:38:57 AM;20.8889;20.5556;61;984.291;4.82803;182;
1525862404;5/9/2018 10:40:04 AM;20.9444;20.5556;61;984.257;4.82803;144;
1525862468;5/9/2018 10:41:08 AM;20.8889;20.5556;60;984.223;3.21869;139;
1525862534;5/9/2018 10:42:14 AM;20.8333;20.5556;61;984.189;3.21869;124;
1525862599;5/9/2018 10:43:19 AM;20.8889;20.5556;61;984.189;3.21869;149;
1525862663;5/9/2018 10:44:23 AM;21.0556;20.5556;61;984.189;1.60934;149;
1525862730;5/9/2018 10:45:30 AM;21.1667;20.5556;62;984.156;4.82803;190;
1525862793;5/9/2018 10:46:33 AM;21.4444;20.5556;63;984.156;6.43738;145;
1525862860;5/9/2018 10:47:40 AM;21.4444;20.5556;62;984.156;8.04672;119;
1525862925;5/9/2018 10:48:45 AM;21.2778;20.5556;61;984.156;3.21869;120;
1525862988;5/9/2018 10:49:48 AM;21.1667;20.5556;60;984.156;4.82803;141;
1525863055;5/9/2018 10:50:55 AM;21.2222;20.5556;61;984.088;4.82803;183;
1525863119;5/9/2018 10:51:59 AM;21.3333;20.5556;62;984.156;6.43738;128;
1525863185;5/9/2018 10:53:05 AM;21.3889;20.5556;62;984.122;3.21869;108;
1525863250;5/9/2018 10:54:10 AM;21.2222;20.5556;61;984.054;1.60934;107;
1525863314;5/9/2018 10:55:14 AM;21.2222;20.5556;61;984.02;1.60934;42;
1525863381;5/9/2018 10:56:21 AM;21.3889;20.5556;62;984.02;3.21869;30;
1525863444;5/9/2018 10:57:24 AM;21.4444;20.5556;61;983.986;1.60934;309;
1525863511;5/9/2018 10:58:31 AM;21.5;20.5556;62;983.986;3.21869;209;
1525863576;5/9/2018 10:59:36 AM;21.6111;21.1111;62;984.02;3.21869;167;
